[[{"header":{"parameterUnit":"m.s-1","parameterCategory":1,"la1":30.2991,"la2":30.254,"lo1":-89.0895,"lo2":-89.0444,"dy":0.0017,"dx":0.0017,"nx":28,"ny":28,"refTime":"2023-08-05T09:00:00:Z","depth":0,"parameterNumber":2,"parameterNumberName":"U-component_of_WINDS"},"data":[0,0,0,0,0,0,0,0,0,0,0,0,0,0,0,0,0,0,0,0,0,0,0,0,0,0,0,0,0,0,0,0,0,0,0,0,0,0,0,0,0,0,0,0,0,0,0,0,0,0,0,0,0,0,0,0,0,0,4.9443,4.9445,0,4.9637,4.9639,4.9641,4.9604,4.96,4.9597,4.9593,4.9795,4.9803,4.9811,0,0,0,0,0,0,0,0,0,0,0,0,0,4.9042,4.905,4.9443,4.9445,4.9448,4.9636,4.9639,4.9642,4.9604,4.96,4.9596,4.9592,4.9792,4.9802,4.9812,0,0,0,0,0,0,0,0,0,0,0,0,0,4.9224,4.9052,4.9442,4.9452,4.9454,4.9636,4.9639,4.9642,4.9605,4.96,4.9595,4.959,4.9788,4.9801,4.9814,4.9999,0,0,4.9853,4.9859,0,0,0,0,0,0,0,0,4.9214,4.9239,4.9448,4.9451,4.9455,4.9591,4.9572,4.9762,4.9607,4.9548,4.9593,4.9587,4.9731,4.9748,4.9796,5.0008,5.0017,4.9854,4.9862,4.9868,4.9871,0,0,0,0,0,0,0,4.9201,4.923,4.952,4.9451,4.9455,4.9447,4.9467,4.9608,4.9667,4.9553,4.955,4.9574,4.9732,4.9784,4.9801,5.002,4.9854,4.9866,4.9873,4.9879,5.0394,5.0399,0,0,0,0,0,0,4.9185,4.922,4.9513,4.9525,4.9319,4.9458,4.9481,4.9552,4.9665,4.9677,4.9578,4.9571,4.9765,4.9786,4.9808,5.0032,4.9868,4.988,4.9887,5.0388,5.0395,5.0401,0,0,0,0,0,0,4.9177,4.9212,4.9506,4.9372,4.9409,4.9471,4.9552,4.9559,4.9611,4.9684,4.9695,4.962,4.9761,4.979,4.9952,5.0039,4.9886,4.9897,5.0381,5.039,5.0398,5.0482,0,0,0,0,0,0,4.9166,4.9209,4.9279,4.9374,4.9416,4.9646,4.9557,4.9567,4.9633,4.9626,4.9727,4.9738,4.9759,4.9932,4.9964,5.0054,4.9908,5.0373,5.0385,5.0395,5.0472,5.0493,5.0511,0,0,0,0,0,4.9151,4.9296,4.9283,4.9319,4.9506,4.9651,4.9675,4.9695,4.964,4.9712,4.9759,4.9735,5.0024,4.9949,4.9985,5.008,5.0368,5.0382,5.0395,5.0463,5.0489,5.051,0,0,0,0,0,0,4.9211,4.9309,4.9296,4.9475,4.9555,4.9644,4.9735,4.9722,4.9819,4.9809,4.9831,4.9854,5.0019,5.0065,4.998,5.0265,5.0188,5.0209,5.0228,5.0253,5.0272,5.0258,4.9918,0,0,0,0,0,4.9245,4.9354,4.9433,4.9584,4.9625,4.9673,4.9737,4.9746,4.983,4.9864,4.9922,5.0006,5.0115,5.0187,5.0291,5.0478,5.05,5.0561,5.058,5.0596,5.0614,5.0717,5.0745,5.0445,5.0445,5.0445,0,0,4.9316,4.9383,4.945,4.9598,4.966,4.9773,4.9702,4.9824,4.9909,4.9882,5.0039,5.0085,5.0179,5.0354,5.0435,5.0398,5.0702,5.0613,5.0625,5.0635,5.0734,5.0762,5.0787,5.0454,5.0453,5.0451,0,0,4.9504,4.9565,4.9697,4.9762,4.9857,4.9889,4.992,5.0012,5.0042,5.0198,5.0181,5.0282,5.047,5.0538,5.0597,5.081,5.0792,5.0844,5.0946,5.1046,5.1069,5.109,5.1167,5.1194,5.0862,5.0862,5.0862,0,4.9581,4.9749,4.9767,4.9892,4.9957,4.9938,5.0072,5.0134,5.0259,5.0305,5.0263,5.0498,5.056,5.0751,5.0803,5.0852,5.0889,5.0833,5.1064,5.1085,5.1105,5.1179,5.1207,5.0868,5.0867,5.0866,5.0866,0,4.9839,4.9957,5.0052,5.0173,5.0249,5.0378,5.0416,5.0491,5.0493,5.0529,5.069,5.0763,5.0883,5.0929,5.0932,5.1121,5.1095,5.1058,5.0982,5.1139,5.1208,5.1237,5.0876,5.0874,5.0872,5.0871,0,0,5.007,5.0199,5.0234,5.0288,5.0392,5.0484,5.0612,5.0728,5.0792,5.0879,5.0988,5.1147,5.1114,5.1181,5.1192,5.128,5.1444,5.1232,5.1235,5.1269,5.1657,5.1684,5.1716,5.1433,5.1438,5.1442,5.1649,0,5.0268,5.0493,5.0513,5.0716,5.0825,5.0808,5.0919,5.0996,5.1033,5.1131,5.1172,5.1285,5.1232,5.1273,5.1358,5.1406,5.1522,5.1391,5.1535,5.1539,5.1512,5.1752,5.1782,5.1973,5.1676,5.1681,5.1684,0,5.0529,5.0622,5.0836,5.0925,5.0971,5.1071,5.1179,5.1273,5.1359,5.138,5.1455,5.1455,5.1587,5.1506,5.1689,5.1599,5.1659,5.1692,5.1699,5.1714,5.1621,5.1773,5.2034,5.2063,5.1727,5.1723,5.172,0,5.0676,5.0856,5.1007,5.1054,5.1161,5.1232,5.128,5.1361,5.143,5.1524,5.1569,5.1678,5.1738,5.1823,5.1852,5.179,5.2035,5.1955,5.2056,5.2056,5.2109,5.2105,5.2383,5.2147,5.2147,5.2146,5.2146,0,5.0895,5.1026,5.1074,5.1167,5.1314,5.1336,5.1481,5.1525,5.1598,5.1699,5.1692,5.1787,5.182,5.1922,5.1945,5.2094,5.2121,5.2142,5.2147,5.2143,5.2141,5.2183,5.217,5.2154,5.2152,5.2151,5.2149,0,5.1085,5.1122,5.1285,5.1373,5.1398,5.1503,5.1578,5.1668,5.1703,5.1832,5.1864,5.192,5.2039,5.2076,5.222,5.2236,5.241,5.2403,5.2381,5.2381,5.248,5.247,5.2795,5.2839,5.2574,5.2577,5.2579,0,5.1222,5.1322,5.1421,5.1488,5.1538,5.1647,5.1716,5.1741,5.1814,5.192,5.1998,5.2115,5.2211,5.2402,5.2456,5.2567,5.2562,5.2668,5.2579,5.2572,5.2564,5.2558,5.2568,5.2685,5.2688,5.269,5.2692,0,5.1462,5.1475,5.1575,5.1682,5.1765,5.185,5.1933,5.1988,5.2026,5.2108,5.2229,5.2303,5.245,5.2567,5.2679,5.2729,5.2718,5.272,5.2749,5.2746,5.2729,5.274,5.2427,5.2713,5.271,5.2709,5.2708,5.2707,5.163,5.1718,5.1801,5.1913,5.1977,5.2054,5.2143,5.2189,5.229,5.241,5.2419,5.2551,5.2635,5.2784,5.284,5.2944,5.2913,5.2955,5.2966,5.2976,5.2984,5.2712,5.2964,5.2964,5.2963,5.2963,5.2962,0,5.1869,5.1921,5.2024,5.2139,5.2227,5.2207,5.2297,5.2372,5.2487,5.2566,5.266,5.28,5.2913,5.2976,5.3089,5.316,5.3158,5.3189,5.3184,5.3196,5.3005,5.2968,5.3189,5.3189,5.3189,5.3189,5.3189,5.3189,5.2004,5.2153,5.2176,5.2357,5.2408,5.2536,5.2589,5.266,5.2723,5.2879,5.2973,5.3012,5.3085,5.3204,5.3307,5.3323,5.3365,5.34,5.3413,5.3233,5.321,5.3188,5.3153,5.3409,5.341,5.3595,5.3597,5.3598]},{"header":{"parameterUnit":"m.s-1","parameterCategory":1,"la1":30.2991,"la2":30.254,"lo1":-89.0895,"lo2":-89.0444,"dy":0.0017,"dx":0.0017,"nx":28,"ny":28,"refTime":"2023-08-05T09:00:00:Z","depth":0,"parameterNumber":3,"parameterNumberName":"V-component_of_WINDS"},"data":[0,0,0,0,0,0,0,0,0,0,0,0,0,0,0,0,0,0,0,0,0,0,0,0,0,0,0,0,0,0,0,0,0,0,0,0,0,0,0,0,0,0,0,0,0,0,0,0,0,0,0,0,0,0,0,0,0,0,-0.6717,-0.6717,0,-0.6738,-0.6738,-0.6738,-0.674,-0.6739,-0.6739,-0.6739,-0.6761,-0.6762,-0.6762,0,0,0,0,0,0,0,0,0,0,0,0,0,-0.6678,-0.6679,-0.6717,-0.6717,-0.6717,-0.6738,-0.6738,-0.6738,-0.674,-0.6739,-0.6739,-0.6739,-0.6761,-0.6762,-0.6763,0,0,0,0,0,0,0,0,0,0,0,0,0,-0.6697,-0.6679,-0.6716,-0.672,-0.6721,-0.6738,-0.6738,-0.6738,-0.674,-0.6739,-0.6739,-0.6739,-0.676,-0.6761,-0.6763,-0.6777,0,0,-0.6766,-0.6767,0,0,0,0,0,0,0,0,-0.6695,-0.6698,-0.6719,-0.672,-0.6721,-0.6736,-0.6732,-0.6751,-0.674,-0.6733,-0.6739,-0.6738,-0.6753,-0.6755,-0.6759,-0.6778,-0.6779,-0.6766,-0.6767,-0.6768,-0.6768,0,0,0,0,0,0,0,-0.6694,-0.6697,-0.6725,-0.672,-0.672,-0.6721,-0.6723,-0.6736,-0.6744,-0.6733,-0.6733,-0.6736,-0.6753,-0.6758,-0.676,-0.678,-0.6766,-0.6768,-0.6768,-0.6769,-0.6812,-0.6813,0,0,0,0,0,0,-0.6692,-0.6696,-0.6724,-0.6726,-0.6707,-0.6722,-0.6725,-0.6731,-0.6744,-0.6746,-0.6736,-0.6736,-0.6756,-0.6758,-0.6761,-0.6779,-0.6768,-0.6769,-0.677,-0.6812,-0.6812,-0.6813,0,0,0,0,0,0,-0.6691,-0.6695,-0.6723,-0.6711,-0.6715,-0.6723,-0.6731,-0.6732,-0.6737,-0.6747,-0.6748,-0.674,-0.6756,-0.6759,-0.6773,-0.678,-0.6769,-0.6771,-0.6811,-0.6812,-0.6813,-0.6815,0,0,0,0,0,0,-0.669,-0.6694,-0.67,-0.6711,-0.6715,-0.6735,-0.6731,-0.6733,-0.6739,-0.6739,-0.675,-0.6752,-0.6756,-0.6771,-0.6775,-0.6781,-0.6771,-0.6811,-0.6812,-0.6813,-0.6815,-0.6816,-0.6817,0,0,0,0,0,-0.6689,-0.67,-0.67,-0.6703,-0.6722,-0.6736,-0.6738,-0.6743,-0.6739,-0.6745,-0.6751,-0.6752,-0.6779,-0.6773,-0.6776,-0.6783,-0.6811,-0.6812,-0.6812,-0.6814,-0.6816,-0.6817,0,0,0,0,0,0,-0.6689,-0.6701,-0.6702,-0.6716,-0.6725,-0.6736,-0.6743,-0.6744,-0.6754,-0.6753,-0.6759,-0.6761,-0.6775,-0.6781,-0.6774,-0.6799,-0.6794,-0.6796,-0.6794,-0.6796,-0.6797,-0.6795,-0.6772,0,0,0,0,0,-0.669,-0.67,-0.6711,-0.6723,-0.6727,-0.6734,-0.674,-0.6743,-0.6752,-0.6756,-0.6763,-0.6772,-0.6783,-0.679,-0.68,-0.6816,-0.6818,-0.6822,-0.6824,-0.6824,-0.6826,-0.6835,-0.6837,-0.6816,-0.6816,-0.6816,0,0,-0.6694,-0.6702,-0.6708,-0.6723,-0.673,-0.674,-0.6737,-0.6748,-0.6756,-0.6758,-0.6772,-0.6778,-0.6788,-0.6803,-0.681,-0.6808,-0.6832,-0.6826,-0.6826,-0.6827,-0.6836,-0.6838,-0.6839,-0.6817,-0.6817,-0.6817,0,0,-0.6706,-0.6713,-0.6723,-0.6731,-0.6741,-0.6746,-0.6749,-0.676,-0.6764,-0.6778,-0.678,-0.6789,-0.6807,-0.6815,-0.6821,-0.6837,-0.6837,-0.684,-0.6846,-0.6855,-0.6856,-0.6858,-0.6863,-0.6865,-0.6841,-0.6841,-0.6841,0,-0.6709,-0.6724,-0.6729,-0.674,-0.6746,-0.6749,-0.676,-0.6767,-0.6781,-0.6785,-0.6783,-0.6806,-0.6813,-0.683,-0.6834,-0.6839,-0.6843,-0.6838,-0.6856,-0.6857,-0.6858,-0.6864,-0.6866,-0.6842,-0.6842,-0.6842,-0.6842,0,-0.6727,-0.6738,-0.6745,-0.6758,-0.6766,-0.6777,-0.6784,-0.6791,-0.6794,-0.6799,-0.6814,-0.6823,-0.6835,-0.6839,-0.6842,-0.6857,-0.6855,-0.6854,-0.685,-0.6861,-0.6866,-0.6868,-0.6842,-0.6842,-0.6842,-0.6842,0,0,-0.6738,-0.6755,-0.6757,-0.6763,-0.6776,-0.6784,-0.6796,-0.6808,-0.6814,-0.6824,-0.6833,-0.6849,-0.6848,-0.6856,-0.6859,-0.6867,-0.6879,-0.6865,-0.6865,-0.6867,-0.6896,-0.6896,-0.6898,-0.6879,-0.688,-0.688,-0.6895,0,-0.6751,-0.6771,-0.6776,-0.6793,-0.6803,-0.6806,-0.6817,-0.6825,-0.6831,-0.6841,-0.6847,-0.6858,-0.6856,-0.6861,-0.6868,-0.6875,-0.6884,-0.6874,-0.6888,-0.6889,-0.6885,-0.6901,-0.6901,-0.6915,-0.6897,-0.6897,-0.6898,0,-0.6768,-0.6778,-0.6796,-0.6808,-0.6812,-0.6821,-0.6833,-0.6842,-0.6853,-0.6856,-0.6865,-0.6868,-0.688,-0.6876,-0.6893,-0.6886,-0.6893,-0.6897,-0.6898,-0.6899,-0.6893,-0.6902,-0.6919,-0.6921,-0.6901,-0.69,-0.69,0,-0.6774,-0.6793,-0.6806,-0.6811,-0.6825,-0.6831,-0.6837,-0.6847,-0.6855,-0.6865,-0.687,-0.6882,-0.6888,-0.6897,-0.6904,-0.69,-0.6921,-0.6917,-0.6924,-0.6924,-0.6928,-0.6927,-0.6946,-0.6933,-0.6933,-0.6932,-0.6932,0,-0.6788,-0.6799,-0.6809,-0.6817,-0.6829,-0.6836,-0.6848,-0.6854,-0.6864,-0.6873,-0.6877,-0.6886,-0.6894,-0.6904,-0.6909,-0.6923,-0.6926,-0.6929,-0.6931,-0.6929,-0.6928,-0.6932,-0.6932,-0.6933,-0.6933,-0.6933,-0.6933,0,-0.6796,-0.6803,-0.6818,-0.683,-0.6834,-0.6842,-0.6853,-0.6861,-0.6867,-0.688,-0.6883,-0.6892,-0.6905,-0.6912,-0.6928,-0.6931,-0.6947,-0.6948,-0.6943,-0.6943,-0.695,-0.6949,-0.6972,-0.6975,-0.696,-0.696,-0.696,0,-0.6804,-0.6813,-0.6826,-0.6832,-0.6839,-0.6849,-0.6857,-0.6864,-0.6871,-0.6884,-0.6891,-0.6904,-0.6914,-0.6934,-0.6942,-0.6955,-0.6956,-0.6963,-0.6957,-0.6956,-0.6956,-0.6955,-0.6956,-0.6963,-0.6963,-0.6963,-0.6964,0,-0.6817,-0.682,-0.6831,-0.6843,-0.6851,-0.6861,-0.687,-0.6876,-0.6884,-0.6893,-0.6905,-0.6914,-0.693,-0.6942,-0.6955,-0.6962,-0.6964,-0.6965,-0.6968,-0.6966,-0.6963,-0.6964,-0.6945,-0.6965,-0.6964,-0.6964,-0.6964,-0.6964,-0.6826,-0.6833,-0.6844,-0.6855,-0.6863,-0.6872,-0.6881,-0.6888,-0.6899,-0.6912,-0.6916,-0.6929,-0.694,-0.6958,-0.6965,-0.6976,-0.6975,-0.6978,-0.6979,-0.698,-0.698,-0.6961,-0.6979,-0.6979,-0.6979,-0.6979,-0.6979,0,-0.6839,-0.6846,-0.6856,-0.687,-0.6879,-0.688,-0.6891,-0.6899,-0.6911,-0.6921,-0.6931,-0.6946,-0.6958,-0.6968,-0.6981,-0.6988,-0.6989,-0.6991,-0.699,-0.6992,-0.698,-0.6977,-0.699,-0.699,-0.699,-0.699,-0.699,-0.699,-0.6846,-0.686,-0.6864,-0.6882,-0.6889,-0.6902,-0.6908,-0.6917,-0.6925,-0.6941,-0.6951,-0.6958,-0.6968,-0.6982,-0.6994,-0.6996,-0.7001,-0.7002,-0.7005,-0.6994,-0.6993,-0.6991,-0.6988,-0.7003,-0.7003,-0.7016,-0.7016,-0.7016]}]]